EW6887 Weather Reports


time (UTC)temp
F
wind
direction
speed
knots
gust
knots
rain 1hr
in
rain 24hr
in
rain mn
in
humidity
%
barometer
mb
20260503021503 52 236 0.0 0.0 0.00 0.00 0.00 55 1017.0
20260503020059 53 236 0.0 0.0 0.00 0.00 0.00 54 1017.0
20260503014550 53 236 0.0 0.0 0.00 0.00 0.00 53 1017.1
20260503013147 54 236 0.0 0.0 0.00 0.00 0.00 52 1017.1
20260503011548 54 236 0.0 0.0 0.00 0.00 0.00 51 1017.1
20260503010133 54 236 0.0 0.0 0.00 0.00 0.00 51 1017.2
20260503004523 53 236 0.0 0.0 0.00 0.00 0.00 53 1017.2
20260503003013 53 236 0.0 0.0 0.00 0.00 0.00 54 1017.3
20260503001505 54 236 0.0 0.0 0.00 0.00 0.00 53 1017.4
20260503000104 55 236 0.0 0.0 0.00 0.00 0.00 52 1017.5
20260502234558 55 236 0.0 0.0 0.00 0.00 0.00 51 1017.6
20260502233038 55 238 0.0 0.0 0.00 0.00 0.00 51 1017.7
20260502231534 55 242 0.0 0.0 0.00 0.00 0.00 52 1017.7
20260502230022 56 246 0.0 0.0 0.00 0.00 0.00 52 1017.8
20260502224545 56 246 0.0 0.0 0.00 0.00 0.00 51 1017.8
20260502223034 57 248 0.0 0.0 0.00 0.00 0.00 50 1018.0
20260502221524 58 258 0.0 0.0 0.00 0.00 0.00 48 1017.9
20260502220018 59 298 0.0 0.0 0.00 0.00 0.00 47 1017.9
20260502214510 59 298 0.0 0.0 0.00 0.00 0.00 47 1018.0
20260502213004 60 337 0.0 0.0 0.00 0.00 0.00 46 1018.1
20260502211556 60 269 0.0 0.0 0.00 0.00 0.00 46 1017.9
20260502210107 60 265 0.0 0.0 0.00 0.00 0.00 46 1018.0
20260502204550 60 227 0.0 0.0 0.00 0.00 0.00 47 1018.1
20260502203044 59 227 0.0 0.0 0.00 0.00 0.00 47 1018.1
20260502201544 59 227 0.0 0.0 0.00 0.00 0.00 48 1018.2
20260502200026 59 227 0.0 0.0 0.00 0.00 0.00 48 1018.2
20260502194518 59 227 0.0 0.0 0.00 0.00 0.00 47 1018.2
20260502193010 61 227 0.0 0.0 0.00 0.00 0.00 46 1018.2
20260502191656 62 210 0.0 0.0 0.00 0.00 0.00 44 1018.1
20260502190050 64 57 0.0 0.0 0.00 0.00 0.00 41 1018.1
20260502184538 66 57 0.0 0.0 0.00 0.00 0.00 39 1017.9
20260502183026 68 57 0.0 0.0 0.00 0.00 0.00 36 1017.8
20260502181512 70 57 0.0 0.0 0.00 0.00 0.00 33 1017.8
20260502163016 75 87 0.0 0.0 0.00 0.00 0.00 26 1018.3
20260502161609 75 54 0.0 0.0 0.00 0.00 0.00 26 1018.5
20260502151553 76 43 0.0 0.0 0.00 0.00 0.00 26 1019.1
20260502140123 75 47 0.0 0.0 0.00 0.00 0.00 25 1020.0
20260502123102 76 22 0.0 0.0 0.00 0.00 0.00 25 1021.0
20260502121552 75 75 0.0 0.0 0.00 0.00 0.00 26 1021.2
20260502114538 74 95 0.0 0.0 0.00 0.00 0.00 26 1021.6
20260502113035 74 5 0.0 0.0 0.00 0.00 0.00 29 1021.8
20260502111521 73 34 0.0 0.0 0.00 0.00 0.00 28 1022.0
20260502110110 73 56 0.0 0.0 0.00 0.00 0.00 27 1022.2
20260502104502 73 102 0.0 0.0 0.00 0.00 0.00 26 1022.4
20260502103105 71 14 0.0 0.0 0.00 0.00 0.00 29 1022.6
20260502101557 73 33 0.0 0.0 0.00 0.00 0.00 31 1022.9
20260502091510 69 338 0.0 0.0 0.00 0.00 0.00 35 1023.6
20260502071519 63 65 0.0 0.0 0.00 0.00 0.00 50 1024.3
20260502070115 63 48 0.0 0.0 0.00 0.00 0.00 51 1024.3
20260502064540 60 342 0.0 0.0 0.00 0.00 0.00 54 1024.3
20260502063037 58 334 0.0 0.0 0.00 0.00 0.00 59 1024.4
20260502061622 56 332 0.0 0.0 0.00 0.00 0.00 61 1024.5
20260502060014 54 227 0.0 0.0 0.00 0.00 0.00 67 1024.6
20260502054518 51 226 0.0 0.0 0.00 0.00 0.00 72 1024.6
20260502053100 48 226 0.0 0.0 0.00 0.00 0.00 77 1024.6
20260502051553 46 226 0.0 0.0 0.00 0.00 0.00 79 1024.5
20260502050052 44 226 0.0 0.0 0.00 0.00 0.00 82 1024.5
20260502044555 43 226 0.0 0.0 0.00 0.00 0.00 83 1024.5
20260502043048 42 209 0.0 0.0 0.00 0.00 0.00 83 1024.4
20260502041545 41 209 0.0 0.0 0.00 0.00 0.00 83 1024.4
20260502040030 41 209 0.0 0.0 0.00 0.00 0.00 83 1024.2
20260502034524 41 209 0.0 0.0 0.00 0.00 0.00 82 1024.2
20260502033014 41 209 0.0 0.0 0.00 0.00 0.00 82 1024.3
20260502031602 42 239 0.0 0.0 0.00 0.00 0.00 81 1024.3
20260502030054 42 239 0.0 0.0 0.00 0.00 0.00 80 1024.5
20260502024641 42 239 0.0 0.0 0.00 0.00 0.00 79 1024.5
20260502023044 43 239 0.0 0.0 0.00 0.00 0.00 78 1024.6